^^
Your Local Weather - Clay, NY Station Historical Data
Daily Summary for January 3, 2017 Units:  English    Metric   Both
« Previous Day
Next Day »
Daily Weekly Monthly Yearly Custom
  High: Low: Average:
Temperature: 36.3 °F 34.0 °F 35.2 °F
Dew Point: 33.7 °F 26.6 °F 31.2 °F
Humidity: 94% 74% 85%
Wind Speed: 7.0mph 0.0mph 3.4mph
Wind Gust: 11.0mph - -
Wind- - East
Pressure: 30.16 in 29.41 in -
Precipitation: 0.74 in    
Historical Graphs
 
 
Tabular Data for January 3, 2017
Time Temperature Dew Point Pressure Wind Wind Speed Wind Gust Humidity Rainfall Rate (Hourly) solar
00:02 34.1 °F 26.7 °F 30.16 in ENE 3.0 mph 3.0 mph 74% 0.00 in 0 W/m2
00:08 34.2 °F 26.8 °F 30.16 in ENE 3.0 mph 4.0 mph 74% 0.00 in 0 W/m2
00:14 34.2 °F 27.1 °F 30.16 in ENE 3.0 mph 3.0 mph 75% 0.00 in 0 W/m2
00:19 34.3 °F 26.9 °F 30.16 in ESE 3.0 mph 3.0 mph 74% 0.00 in 0 W/m2
00:26 34.3 °F 26.9 °F 30.15 in ENE 3.0 mph 3.0 mph 74% 0.00 in 0 W/m2
00:32 34.2 °F 26.8 °F 30.16 in ENE 2.0 mph 2.0 mph 74% 0.00 in 0 W/m2
00:38 34.2 °F 26.8 °F 30.15 in ENE 3.0 mph 7.0 mph 74% 0.00 in 0 W/m2
00:44 34.1 °F 27.0 °F 30.15 in ENE 3.0 mph 3.0 mph 75% 0.00 in 0 W/m2
00:50 34.1 °F 26.7 °F 30.15 in NE 3.0 mph 3.0 mph 74% 0.00 in 0 W/m2
00:56 34.1 °F 27.0 °F 30.15 in East 3.0 mph 3.0 mph 75% 0.00 in 0 W/m2
01:02 34.1 °F 26.7 °F 30.15 in East 3.0 mph 6.0 mph 74% 0.00 in 0 W/m2
01:08 34.0 °F 26.9 °F 30.15 in NE 3.0 mph 6.0 mph 75% 0.00 in 0 W/m2
01:14 34.1 °F 26.7 °F 30.15 in East 3.0 mph 4.0 mph 74% 0.00 in 0 W/m2
01:20 34.0 °F 26.9 °F 30.14 in NNE 3.0 mph 5.0 mph 75% 0.00 in 0 W/m2
01:26 34.1 °F 26.7 °F 30.14 in East 4.0 mph 5.0 mph 74% 0.00 in 0 W/m2
01:32 34.1 °F 26.7 °F 30.14 in East 4.0 mph 5.0 mph 74% 0.00 in 0 W/m2
01:38 34.1 °F 26.7 °F 30.14 in ENE 3.0 mph 5.0 mph 74% 0.00 in 0 W/m2
01:44 34.1 °F 26.7 °F 30.15 in NE 4.0 mph 9.0 mph 74% 0.00 in 0 W/m2
01:50 34.1 °F 26.7 °F 30.14 in ENE 3.0 mph 7.0 mph 74% 0.00 in 0 W/m2
01:56 34.1 °F 26.7 °F 30.14 in ENE 4.0 mph 7.0 mph 74% 0.00 in 0 W/m2
02:08 34.0 °F 26.6 °F 30.14 in ENE 4.0 mph 7.0 mph 74% 0.00 in 0 W/m2
02:14 34.0 °F 26.6 °F 30.14 in East 3.0 mph 5.0 mph 74% 0.00 in 0 W/m2
02:20 34.1 °F 26.7 °F 30.14 in ESE 3.0 mph 3.0 mph 74% 0.00 in 0 W/m2
02:26 34.1 °F 26.7 °F 30.14 in SE 4.0 mph 8.0 mph 74% 0.00 in 0 W/m2
02:32 34.1 °F 26.7 °F 30.13 in ENE 3.0 mph 5.0 mph 74% 0.00 in 0 W/m2
02:38 34.2 °F 26.8 °F 30.12 in East 4.0 mph 7.0 mph 74% 0.00 in 0 W/m2
02:44 34.2 °F 26.8 °F 30.12 in East 4.0 mph 5.0 mph 74% 0.00 in 0 W/m2
02:50 34.3 °F 26.9 °F 30.12 in ENE 4.0 mph 7.0 mph 74% 0.00 in 0 W/m2
02:55 34.3 °F 26.9 °F 30.11 in ENE 4.0 mph 7.0 mph 74% 0.00 in 0 W/m2
03:08 34.3 °F 26.9 °F 30.11 in ENE 3.0 mph 9.0 mph 74% 0.00 in 0 W/m2
03:14 34.3 °F 27.2 °F 30.10 in ENE 4.0 mph 4.0 mph 75% 0.00 in 0 W/m2
03:19 34.3 °F 26.9 °F 30.10 in ESE 4.0 mph 4.0 mph 74% 0.00 in 0 W/m2
03:26 34.3 °F 27.2 °F 30.10 in East 3.0 mph 5.0 mph 75% 0.00 in 0 W/m2
03:32 34.3 °F 27.2 °F 30.10 in ENE 3.0 mph 4.0 mph 75% 0.00 in 0 W/m2
03:38 34.3 °F 27.2 °F 30.10 in ENE 4.0 mph 5.0 mph 75% 0.00 in 0 W/m2
03:44 34.3 °F 27.2 °F 30.09 in ESE 3.0 mph 4.0 mph 75% 0.00 in 0 W/m2
03:50 34.3 °F 27.2 °F 30.09 in East 3.0 mph 3.0 mph 75% 0.00 in 0 W/m2
03:56 34.3 °F 27.5 °F 30.09 in ENE 3.0 mph 5.0 mph 76% 0.00 in 0 W/m2
04:02 34.3 °F 27.5 °F 30.08 in ESE 3.0 mph 3.0 mph 76% 0.00 in 0 W/m2
04:08 34.3 °F 27.5 °F 30.07 in ENE 3.0 mph 3.0 mph 76% 0.00 in 0 W/m2
04:13 34.4 °F 27.6 °F 30.07 in East 4.0 mph 4.0 mph 76% 0.00 in 0 W/m2
04:20 34.4 °F 27.6 °F 30.07 in East 4.0 mph 4.0 mph 76% 0.00 in 0 W/m2
04:26 34.5 °F 27.7 °F 30.06 in NE 3.0 mph 5.0 mph 76% 0.00 in 0 W/m2
04:32 34.5 °F 27.7 °F 30.06 in East 4.0 mph 5.0 mph 76% 0.00 in 0 W/m2
04:38 34.5 °F 28.0 °F 30.04 in East 3.0 mph 5.0 mph 77% 0.00 in 0 W/m2
04:44 34.6 °F 28.1 °F 30.04 in East 4.0 mph 10.0 mph 77% 0.00 in 0 W/m2
04:50 34.7 °F 27.9 °F 30.04 in ENE 4.0 mph 7.0 mph 76% 0.00 in 0 W/m2
04:56 34.8 °F 28.0 °F 30.04 in South 4.0 mph 7.0 mph 76% 0.00 in 0 W/m2
05:02 34.9 °F 28.4 °F 30.04 in ESE 5.0 mph 5.0 mph 77% 0.00 in 0 W/m2
05:08 34.9 °F 28.4 °F 30.04 in East 4.0 mph 5.0 mph 77% 0.00 in 0 W/m2
05:14 34.9 °F 28.4 °F 30.03 in ESE 3.0 mph 4.0 mph 77% 0.00 in 0 W/m2
05:20 34.9 °F 28.4 °F 30.03 in SSE 4.0 mph 4.0 mph 77% 0.00 in 0 W/m2
05:26 35.0 °F 28.8 °F 30.02 in ENE 4.0 mph 4.0 mph 78% 0.00 in 0 W/m2
05:32 35.0 °F 28.8 °F 30.02 in ESE 5.0 mph 11.0 mph 78% 0.00 in 0 W/m2
05:38 35.0 °F 28.8 °F 30.02 in East 5.0 mph 11.0 mph 78% 0.00 in 0 W/m2
05:44 35.0 °F 28.8 °F 30.02 in ENE 4.0 mph 4.0 mph 78% 0.00 in 0 W/m2
05:49 35.0 °F 29.1 °F 30.01 in ESE 4.0 mph 7.0 mph 79% 0.00 in 0 W/m2
05:56 35.0 °F 29.1 °F 30.01 in SE 4.0 mph 7.0 mph 79% 0.00 in 0 W/m2
06:02 35.0 °F 29.1 °F 30.00 in ESE 4.0 mph 5.0 mph 79% 0.00 in 0 W/m2
06:08 35.0 °F 29.5 °F 29.99 in East 4.0 mph 7.0 mph 80% 0.00 in 0 W/m2
06:14 35.0 °F 29.5 °F 30.00 in ENE 4.0 mph 8.0 mph 80% 0.00 in 0 W/m2
06:20 35.1 °F 29.6 °F 30.00 in East 4.0 mph 4.0 mph 80% 0.00 in 0 W/m2
06:26 35.0 °F 29.5 °F 30.00 in ESE 4.0 mph 7.0 mph 80% 0.00 in 0 W/m2
06:32 35.1 °F 29.6 °F 29.99 in ESE 4.0 mph 4.0 mph 80% 0.00 in 0 W/m2
06:38 35.1 °F 29.6 °F 29.99 in SE 4.0 mph 7.0 mph 80% 0.00 in 0 W/m2
06:44 35.2 °F 29.6 °F 29.99 in East 4.0 mph 4.0 mph 80% 0.00 in 0 W/m2
06:49 35.2 °F 30.0 °F 29.98 in ESE 4.0 mph 8.0 mph 81% 0.00 in 0 W/m2
06:56 35.2 °F 30.0 °F 29.98 in ENE 4.0 mph 8.0 mph 81% 0.00 in 0 W/m2
07:02 35.2 °F 30.0 °F 29.98 in ENE 4.0 mph 6.0 mph 81% 0.00 in 0 W/m2
07:08 35.2 °F 30.0 °F 29.97 in SE 4.0 mph 7.0 mph 81% 0.00 in 0 W/m2
07:13 35.2 °F 30.0 °F 29.96 in ENE 4.0 mph 9.0 mph 81% 0.00 in 0 W/m2
07:20 35.1 °F 29.9 °F 29.96 in SE 4.0 mph 5.0 mph 81% 0.00 in 0 W/m2
07:26 35.2 °F 30.0 °F 29.96 in ENE 4.0 mph 7.0 mph 81% 0.00 in 0 W/m2
07:32 35.3 °F 30.1 °F 29.96 in East 4.0 mph 6.0 mph 81% 0.00 in 0 W/m2
07:38 35.3 °F 30.1 °F 29.95 in ENE 4.0 mph 9.0 mph 81% 0.00 in 0 W/m2
07:44 35.3 °F 30.1 °F 29.95 in ENE 4.0 mph 7.0 mph 81% 0.00 in 0 W/m2
07:49 35.3 °F 30.1 °F 29.95 in East 4.0 mph 4.0 mph 81% 0.00 in 5 W/m2
07:56 35.3 °F 30.1 °F 29.95 in ENE 4.0 mph 4.0 mph 81% 0.00 in 7 W/m2
08:02 35.3 °F 30.4 °F 29.94 in ENE 3.0 mph 7.0 mph 82% 0.00 in 12 W/m2
08:08 35.2 °F 30.3 °F 29.94 in NNE 3.0 mph 7.0 mph 82% 0.00 in 18 W/m2
08:14 35.2 °F 30.3 °F 29.94 in ENE 4.0 mph 8.0 mph 82% 0.00 in 21 W/m2
08:20 35.2 °F 30.3 °F 29.93 in ENE 4.0 mph 4.0 mph 82% 0.00 in 23 W/m2
08:26 35.2 °F 30.3 °F 29.93 in East 4.0 mph 4.0 mph 82% 0.00 in 28 W/m2
08:32 35.3 °F 30.4 °F 29.93 in East 4.0 mph 8.0 mph 82% 0.00 in 35 W/m2
08:38 35.4 °F 30.5 °F 29.92 in ENE 5.0 mph 8.0 mph 82% 0.00 in 42 W/m2
08:44 35.5 °F 30.5 °F 29.91 in East 4.0 mph 7.0 mph 82% 0.00 in 46 W/m2
08:50 35.6 °F 30.6 °F 29.91 in ENE 5.0 mph 5.0 mph 82% 0.00 in 46 W/m2
08:56 35.6 °F 30.6 °F 29.92 in ENE 4.0 mph 8.0 mph 82% 0.00 in 40 W/m2
09:02 35.6 °F 30.6 °F 29.92 in ENE 4.0 mph 10.0 mph 82% 0.00 in 37 W/m2
09:08 35.7 °F 30.7 °F 29.92 in ENE 4.0 mph 10.0 mph 82% 0.00 in 32 W/m2
09:14 35.7 °F 30.7 °F 29.91 in ENE 5.0 mph 7.0 mph 82% 0.00 in 33 W/m2
09:19 35.8 °F 30.8 °F 29.91 in NE 5.0 mph 5.0 mph 82% 0.00 in 42 W/m2
09:26 35.8 °F 30.8 °F 29.91 in NE 5.0 mph 7.0 mph 82% 0.00 in 42 W/m2
09:32 35.9 °F 30.9 °F 29.91 in East 4.0 mph 4.0 mph 82% 0.00 in 42 W/m2
09:38 35.9 °F 30.9 °F 29.91 in ENE 5.0 mph 7.0 mph 82% 0.00 in 47 W/m2
09:44 35.9 °F 30.9 °F 29.90 in East 4.0 mph 5.0 mph 82% 0.00 in 46 W/m2
09:50 35.8 °F 31.1 °F 29.90 in East 4.0 mph 5.0 mph 83% 0.00 in 46 W/m2
09:56 35.8 °F 31.1 °F 29.90 in East 4.0 mph 5.0 mph 83% 0.00 in 40 W/m2
10:02 35.7 °F 31.0 °F 29.90 in ENE 4.0 mph 4.0 mph 83% 0.00 in 47 W/m2
10:08 35.7 °F 31.0 °F 29.89 in ENE 4.0 mph 9.0 mph 83% 0.00 in 49 W/m2
10:14 35.7 °F 31.0 °F 29.89 in East 4.0 mph 7.0 mph 83% 0.00 in 49 W/m2
10:20 35.8 °F 31.1 °F 29.88 in East 5.0 mph 6.0 mph 83% 0.00 in 47 W/m2
10:26 35.9 °F 31.2 °F 29.88 in East 4.0 mph 6.0 mph 83% 0.00 in 54 W/m2
10:32 35.9 °F 31.2 °F 29.87 in ENE 4.0 mph 5.0 mph 83% 0.00 in 53 W/m2
10:38 36.0 °F 31.3 °F 29.87 in ENE 3.0 mph 5.0 mph 83% 0.00 in 51 W/m2
10:46 35.9 °F 31.2 °F 29.87 in ENE 4.0 mph 4.0 mph 83% 0.00 in 49 W/m2
10:52 35.9 °F 31.2 °F 29.86 in ENE 3.0 mph 4.0 mph 83% 0.00 in 44 W/m2
10:58 35.9 °F 31.2 °F 29.85 in ENE 3.0 mph 5.0 mph 83% 0.00 in 49 W/m2
11:06 36.0 °F 31.3 °F 29.85 in East 4.0 mph 6.0 mph 83% 0.00 in 70 W/m2
11:12 36.1 °F 31.4 °F 29.84 in ENE 5.0 mph 5.0 mph 83% 0.00 in 93 W/m2
11:18 36.2 °F 31.5 °F 29.83 in ENE 5.0 mph 10.0 mph 83% 0.00 in 107 W/m2
11:24 36.2 °F 31.5 °F 29.83 in East 6.0 mph 8.0 mph 83% 0.00 in 114 W/m2
11:30 36.3 °F 31.6 °F 29.83 in ENE 6.0 mph 8.0 mph 83% 0.00 in 109 W/m2
11:36 36.2 °F 31.5 °F 29.82 in ESE 6.0 mph 9.0 mph 83% 0.00 in 102 W/m2
11:42 36.1 °F 31.7 °F 29.82 in East 7.0 mph 7.0 mph 84% 0.00 in 116 W/m2
11:48 36.0 °F 31.9 °F 29.81 in ESE 6.0 mph 7.0 mph 85% 0.00 in 123 W/m2
11:53 36.0 °F 31.9 °F 29.80 in East 5.0 mph 5.0 mph 85% 0.00 in 132 W/m2
12:00 36.0 °F 31.9 °F 29.80 in ENE 5.0 mph 5.0 mph 85% 0.00 in 105 W/m2
12:06 36.1 °F 32.0 °F 29.79 in ESE 5.0 mph 7.0 mph 85% 0.00 in 111 W/m2
12:12 36.1 °F 31.7 °F 29.79 in ESE 6.0 mph 7.0 mph 84% 0.00 in 90 W/m2
12:18 36.1 °F 32.0 °F 29.79 in East 6.0 mph 7.0 mph 85% 0.00 in 69 W/m2
12:24 36.1 °F 32.0 °F 29.79 in NNE 5.0 mph 7.0 mph 85% 0.00 in 67 W/m2
12:30 36.0 °F 31.9 °F 29.78 in ESE 5.0 mph 5.0 mph 85% 0.00 in 53 W/m2
12:36 35.8 °F 32.3 °F 29.77 in ESE 5.0 mph 5.0 mph 87% 0.00 in 56 W/m2
12:42 35.6 °F 32.1 °F 29.77 in SE 5.0 mph 6.0 mph 87% 0.00 in 60 W/m2
12:48 35.5 °F 32.3 °F 29.76 in ENE 5.0 mph 6.0 mph 88% 0.00 in 65 W/m2
12:54 35.6 °F 32.4 °F 29.76 in East 4.0 mph 4.0 mph 88% 0.00 in 53 W/m2
13:00 35.6 °F 32.4 °F 29.76 in ESE 4.0 mph 4.0 mph 88% 0.00 in 42 W/m2
13:06 35.5 °F 32.6 °F 29.76 in SE 5.0 mph 5.0 mph 89% 0.15 in 46 W/m2
13:12 35.4 °F 32.5 °F 29.75 in East 5.0 mph 5.0 mph 89% 0.10 in 42 W/m2
13:18 35.4 °F 32.5 °F 29.74 in ENE 5.0 mph 5.0 mph 89% 0.05 in 37 W/m2
13:26 35.3 °F 32.7 °F 29.74 in ESE 5.0 mph 5.0 mph 90% 0.12 in 39 W/m2
13:32 35.3 °F 32.7 °F 29.74 in NE 3.0 mph 7.0 mph 90% 0.19 in 46 W/m2
13:38 35.4 °F 32.8 °F 29.73 in ESE 4.0 mph 7.0 mph 90% 0.06 in 42 W/m2
13:43 35.5 °F 32.9 °F 29.73 in NE 4.0 mph 8.0 mph 90% 0.05 in 35 W/m2
13:50 35.5 °F 32.9 °F 29.73 in NE 4.0 mph 4.0 mph 90% 0.08 in 33 W/m2
13:56 35.5 °F 32.9 °F 29.72 in ENE 3.0 mph 4.0 mph 90% 0.12 in 37 W/m2
14:02 35.5 °F 32.9 °F 29.71 in ENE 3.0 mph 4.0 mph 90% 0.06 in 37 W/m2
14:08 35.6 °F 33.2 °F 29.71 in NE 3.0 mph 4.0 mph 91% 0.04 in 37 W/m2
14:14 35.6 °F 33.2 °F 29.71 in East 4.0 mph 7.0 mph 91% 0.04 in 33 W/m2
14:20 35.6 °F 33.2 °F 29.71 in NE 4.0 mph 4.0 mph 91% 0.10 in 32 W/m2
14:26 35.6 °F 33.2 °F 29.70 in East 4.0 mph 5.0 mph 91% 0.07 in 30 W/m2
14:32 35.7 °F 33.3 °F 29.70 in ENE 5.0 mph 5.0 mph 91% 0.08 in 28 W/m2
14:38 35.6 °F 33.2 °F 29.69 in ENE 4.0 mph 6.0 mph 91% 0.08 in 25 W/m2
14:44 35.6 °F 33.2 °F 29.69 in East 3.0 mph 6.0 mph 91% 0.14 in 21 W/m2
14:49 35.5 °F 33.1 °F 29.69 in East 3.0 mph 3.0 mph 91% 0.13 in 21 W/m2
14:56 35.6 °F 33.2 °F 29.69 in ENE 3.0 mph 4.0 mph 91% 0.13 in 18 W/m2
15:02 35.6 °F 33.2 °F 29.69 in East 4.0 mph 5.0 mph 91% 0.24 in 18 W/m2
15:08 35.5 °F 33.4 °F 29.68 in ENE 3.0 mph 8.0 mph 92% 0.11 in 16 W/m2
15:14 35.6 °F 33.5 °F 29.68 in East 3.0 mph 3.0 mph 92% 0.16 in 16 W/m2
15:20 35.6 °F 33.5 °F 29.68 in NE 3.0 mph 4.0 mph 92% 0.16 in 16 W/m2
15:26 35.6 °F 33.5 °F 29.68 in East 3.0 mph 4.0 mph 92% 0.21 in 14 W/m2
15:32 35.6 °F 33.5 °F 29.68 in ENE 3.0 mph 3.0 mph 92% 0.19 in 12 W/m2
15:38 35.5 °F 33.4 °F 29.68 in ENE 3.0 mph 7.0 mph 92% 0.24 in 12 W/m2
15:44 35.6 °F 33.5 °F 29.67 in East 3.0 mph 3.0 mph 92% 0.14 in 11 W/m2
15:50 35.5 °F 33.4 °F 29.67 in ENE 3.0 mph 5.0 mph 92% 0.13 in 9 W/m2
15:56 35.5 °F 33.4 °F 29.67 in ENE 3.0 mph 5.0 mph 92% 0.14 in 7 W/m2
16:02 35.5 °F 33.4 °F 29.66 in East 3.0 mph 6.0 mph 92% 0.16 in 5 W/m2
16:08 35.4 °F 33.3 °F 29.66 in ENE 4.0 mph 6.0 mph 92% 0.13 in 5 W/m2
16:14 35.4 °F 33.3 °F 29.65 in ENE 4.0 mph 4.0 mph 92% 0.14 in 0 W/m2
16:20 35.4 °F 33.3 °F 29.65 in NE 3.0 mph 5.0 mph 92% 0.17 in 0 W/m2
16:26 35.4 °F 33.3 °F 29.65 in ENE 3.0 mph 7.0 mph 92% 0.14 in 0 W/m2
16:32 35.4 °F 33.3 °F 29.64 in ENE 4.0 mph 7.0 mph 92% 0.12 in 0 W/m2
16:38 35.4 °F 33.6 °F 29.63 in East 4.0 mph 7.0 mph 93% 0.13 in 0 W/m2
16:44 35.4 °F 33.6 °F 29.63 in ENE 3.0 mph 5.0 mph 93% 0.08 in 0 W/m2
16:49 35.4 °F 33.6 °F 29.63 in East 4.0 mph 6.0 mph 93% 0.08 in 0 W/m2
16:56 35.4 °F 33.6 °F 29.62 in East 4.0 mph 6.0 mph 93% 0.08 in 0 W/m2
17:02 35.4 °F 33.6 °F 29.62 in ENE 4.0 mph 5.0 mph 93% 0.05 in 0 W/m2
17:08 35.4 °F 33.6 °F 29.61 in East 4.0 mph 5.0 mph 93% 0.05 in 0 W/m2
17:14 35.3 °F 33.5 °F 29.61 in East 3.0 mph 6.0 mph 93% 0.05 in 0 W/m2
17:20 35.3 °F 33.5 °F 29.61 in East 3.0 mph 5.0 mph 93% 0.04 in 0 W/m2
17:26 35.2 °F 33.4 °F 29.60 in ENE 3.0 mph 5.0 mph 93% 0.04 in 0 W/m2
17:32 35.3 °F 33.5 °F 29.60 in ENE 3.0 mph 10.0 mph 93% 0.04 in 0 W/m2
17:38 35.3 °F 33.5 °F 29.60 in ENE 3.0 mph 10.0 mph 93% 0.04 in 0 W/m2
17:44 35.3 °F 33.5 °F 29.59 in East 3.0 mph 5.0 mph 93% 0.04 in 0 W/m2
17:50 35.3 °F 33.5 °F 29.59 in ENE 4.0 mph 4.0 mph 93% 0.04 in 0 W/m2
17:56 35.3 °F 33.5 °F 29.58 in ENE 3.0 mph 5.0 mph 93% 0.04 in 0 W/m2
18:02 35.3 °F 33.5 °F 29.58 in ENE 4.0 mph 7.0 mph 93% 0.04 in 0 W/m2
18:08 35.3 °F 33.5 °F 29.58 in ENE 4.0 mph 7.0 mph 93% 0.04 in 0 W/m2
18:14 35.3 °F 33.5 °F 29.58 in ESE 3.0 mph 4.0 mph 93% 0.04 in 0 W/m2
18:20 35.3 °F 33.5 °F 29.58 in East 3.0 mph 3.0 mph 93% 0.05 in 0 W/m2
18:26 35.4 °F 33.6 °F 29.57 in East 4.0 mph 7.0 mph 93% 0.05 in 0 W/m2
18:32 35.4 °F 33.6 °F 29.57 in ENE 4.0 mph 7.0 mph 93% 0.04 in 0 W/m2
18:38 35.4 °F 33.6 °F 29.57 in East 3.0 mph 7.0 mph 93% 0.00 in 0 W/m2
18:44 35.4 °F 33.6 °F 29.57 in East 3.0 mph 3.0 mph 93% 0.10 in 0 W/m2
18:50 35.5 °F 33.7 °F 29.57 in ENE 4.0 mph 4.0 mph 93% 0.08 in 0 W/m2
18:56 35.5 °F 33.7 °F 29.57 in ESE 4.0 mph 8.0 mph 93% 0.07 in 0 W/m2
19:02 35.5 °F 33.7 °F 29.57 in ENE 3.0 mph 3.0 mph 93% 0.07 in 0 W/m2
19:08 35.5 °F 33.7 °F 29.56 in ENE 3.0 mph 4.0 mph 93% 0.05 in 0 W/m2
19:14 35.5 °F 33.7 °F 29.56 in ESE 3.0 mph 5.0 mph 93% 0.04 in 0 W/m2
19:20 35.5 °F 33.7 °F 29.55 in ENE 4.0 mph 4.0 mph 93% 0.08 in 0 W/m2
19:26 35.5 °F 33.4 °F 29.55 in NE 4.0 mph 4.0 mph 92% 0.08 in 0 W/m2
19:32 35.5 °F 33.7 °F 29.55 in East 3.0 mph 5.0 mph 93% 0.05 in 0 W/m2
19:44 35.5 °F 33.7 °F 29.54 in ENE 2.0 mph 3.0 mph 93% 0.08 in 0 W/m2
19:50 35.5 °F 33.7 °F 29.54 in ENE 2.0 mph 2.0 mph 93% 0.06 in 0 W/m2
19:55 35.5 °F 33.7 °F 29.54 in ENE 3.0 mph 5.0 mph 93% 0.06 in 0 W/m2
20:02 35.4 °F 33.6 °F 29.53 in ENE 2.0 mph 2.0 mph 93% 0.05 in 0 W/m2
20:08 35.4 °F 33.6 °F 29.52 in NE 1.0 mph 4.0 mph 93% 0.06 in 0 W/m2
20:14 35.4 °F 33.6 °F 29.52 in ENE 2.0 mph 4.0 mph 93% 0.06 in 0 W/m2
20:20 35.4 °F 33.6 °F 29.52 in ENE 3.0 mph 3.0 mph 93% 0.06 in 0 W/m2
20:26 35.4 °F 33.6 °F 29.51 in ENE 2.0 mph 7.0 mph 93% 0.06 in 0 W/m2
20:32 35.4 °F 33.6 °F 29.51 in East 3.0 mph 5.0 mph 93% 0.05 in 0 W/m2
20:38 35.4 °F 33.6 °F 29.51 in NE 3.0 mph 5.0 mph 93% 0.07 in 0 W/m2
20:43 35.5 °F 33.7 °F 29.50 in ENE 2.0 mph 2.0 mph 93% 0.07 in 0 W/m2
20:50 35.4 °F 33.6 °F 29.50 in East 2.0 mph 3.0 mph 93% 0.05 in 0 W/m2
20:56 35.5 °F 33.7 °F 29.50 in ENE 2.0 mph 5.0 mph 93% 0.05 in 0 W/m2
21:02 35.5 °F 33.7 °F 29.49 in ENE 2.0 mph 3.0 mph 93% 0.05 in 0 W/m2
21:08 35.5 °F 33.7 °F 29.49 in East 1.0 mph 4.0 mph 93% 0.05 in 0 W/m2
21:14 35.5 °F 33.7 °F 29.49 in ENE 1.0 mph 1.0 mph 93% 0.05 in 0 W/m2
21:20 35.5 °F 33.7 °F 29.49 in ENE 2.0 mph 3.0 mph 93% 0.00 in 0 W/m2
21:26 35.5 °F 33.7 °F 29.48 in East 2.0 mph 3.0 mph 93% 0.00 in 0 W/m2
21:32 35.5 °F 33.7 °F 29.48 in East 2.0 mph 5.0 mph 93% 0.00 in 0 W/m2
21:38 35.5 °F 33.7 °F 29.48 in East 2.0 mph 5.0 mph 93% 0.00 in 0 W/m2
21:44 35.5 °F 33.7 °F 29.48 in ENE 2.0 mph 2.0 mph 93% 0.00 in 0 W/m2
21:49 35.4 °F 33.6 °F 29.47 in East 2.0 mph 5.0 mph 93% 0.00 in 0 W/m2
21:56 35.4 °F 33.6 °F 29.46 in East 2.0 mph 5.0 mph 93% 0.06 in 0 W/m2
22:02 35.4 °F 33.6 °F 29.46 in East 1.0 mph 2.0 mph 93% 0.05 in 0 W/m2
22:08 35.4 °F 33.6 °F 29.46 in East 1.0 mph 2.0 mph 93% 0.00 in 0 W/m2
22:13 35.4 °F 33.6 °F 29.46 in ENE 1.0 mph 2.0 mph 93% 0.00 in 0 W/m2
22:20 35.4 °F 33.6 °F 29.46 in ESE 1.0 mph 1.0 mph 93% 0.00 in 0 W/m2
22:26 35.4 °F 33.6 °F 29.45 in East 1.0 mph 1.0 mph 93% 0.00 in 0 W/m2
22:32 35.4 °F 33.6 °F 29.45 in SE 1.0 mph 4.0 mph 93% 0.00 in 0 W/m2
22:38 35.4 °F 33.6 °F 29.46 in NE 1.0 mph 4.0 mph 93% 0.00 in 0 W/m2
22:43 35.4 °F 33.6 °F 29.46 in SE 1.0 mph 1.0 mph 93% 0.00 in 0 W/m2
22:50 35.4 °F 33.6 °F 29.45 in SE 1.0 mph 1.0 mph 93% 0.00 in 0 W/m2
22:56 35.4 °F 33.6 °F 29.44 in SE 1.0 mph 1.0 mph 93% 0.00 in 0 W/m2
23:02 35.3 °F 33.5 °F 29.44 in Calm   1.0 mph 93% 0.00 in 0 W/m2
23:08 35.4 °F 33.6 °F 29.44 in Calm   1.0 mph 93% 0.00 in 0 W/m2
23:14 35.3 °F 33.5 °F 29.44 in Calm     93% 0.00 in 0 W/m2
23:20 35.3 °F 33.5 °F 29.44 in Calm     93% 0.00 in 0 W/m2
23:26 35.3 °F 33.5 °F 29.44 in Calm   1.0 mph 93% 0.00 in 0 W/m2
23:32 35.2 °F 33.4 °F 29.43 in Calm     93% 0.00 in 0 W/m2
23:38 35.1 °F 33.3 °F 29.43 in Calm   3.0 mph 93% 0.00 in 0 W/m2
23:44 35.2 °F 33.6 °F 29.43 in Calm     94% 0.00 in 0 W/m2
23:52 35.1 °F 33.5 °F 29.42 in Calm     94% 0.00 in 0 W/m2
23:58 35.1 °F 33.3 °F 29.41 in NE 1.0 mph 2.0 mph 93% 0.00 in 0 W/m2
Country Meadow, Clay, NY, USA
Compliments of Weather Underground - 2 mb